Regional Weather Roundup
Issued by NWS

Home | Current Version | Previous Version | Graphics & Text | Print | Product List | Glossary On
Versions: 1 2 3 4 5 6 7 8 9 10 11 12 13 14 15 16 17 18 19 20 21 22 23 24 25 26 27 28 29 30 31 32 33 34 35 36 37 38 39 40 41 42 43 44 45 46 47 48 49 50
000
ASUS43 KDMX 110701
RWRIA

WEATHER ROUNDUP FOR IOWA
NATIONAL WEATHER SERVICE DES MOINES IA
100 AM CST MON DEC 11 2017

NOTE: "FAIR" INDICATES FEW OR NO CLOUDS BELOW 12,000 FEET WITH NO
SIGNIFICANT WEATHER AND/OR OBSTRUCTIONS TO VISIBILITY.

* - THESE STATIONS ARE NOT NWS STATIONS...THUS NOT UNDER NWS
QUALITY CONTROL.  THEY ALSO DO NOT REPORT WEATHER SUCH
AS PRECIPITATION OR FOG.

IAZ001>003-012>014-020>022-031>034-043>046-110800-
   NORTHWEST IOWA

CITY           SKY/WX    TMP DP  RH WIND       PRES   REMARKS
CARROLL *      PTCLDY    32  25  74 W6        29.97F WCI  26
CHEROKEE *     PTCLDY    31  26  82 S6        29.94F WCI  25
DENISON *      CLOUDY    28  23  80 CALM      29.99F
LE MARS *      CLOUDY    34  27  75 CALM      29.93F
ORANGE CITY *  CLOUDY    34  30  86 SW6       29.92F WCI  29
SHELDON *      MOCLDY    32  27  80 W3        29.91F
SIOUX CITY     PTCLDY    27  21  78 E7        29.95F WCI  19
SPENCER        CLOUDY    30  26  85 S7        29.90F WCI  23
STORM LAKE *   MOCLDY    34  25  69 SW8G15    29.94F WCI  27
$$

IAZ055>058-069>071-079>083-090>094-110800-
   SOUTHWEST IOWA

CITY           SKY/WX    TMP DP  RH WIND       PRES   REMARKS
ATLANTIC *     CLOUDY    30  25  80 SW3       30.00F
AUDUBON *      CLOUDY    30  25  80 CALM      30.00S
CLARINDA *     CLOUDY    25  21  86 CALM      30.04F
COUNCIL BLFS * CLOUDY    39  21  48 SW8       29.99F WCI  34
CRESTON *      CLOUDY    32  25  74 SW5       30.02F WCI  27
HARLAN  *      CLOUDY    30  23  74 S5        30.02F WCI  25
LAMONI         CLOUDY    32  24  72 SW7       30.02F WCI  26
RED OAK *      CLOUDY    27  23  86 CALM      30.01F
SHENANDOAH *   CLOUDY    27  21  80 CALM      30.02F
$$

IAZ047>049-059>061-072>074-084-110800-
   CENTRAL IOWA

CITY           SKY/WX    TMP DP  RH WIND       PRES   REMARKS
AMES           PTCLDY    30  24  78 W3        29.99F
ANKENY *       CLOUDY    32  25  74 S5        30.01F WCI  27
BOONE *        PTCLDY    32  25  74 SW6       29.98R WCI  26
CHARITON *     CLOUDY    32  25  74 SW5       30.01F WCI  27
DES MOINES     MOCLDY    32  24  72 S7        30.01F WCI  26
GRINNELL*      CLOUDY    31  24  74 S7        30.02F WCI  24
KNOXVILLE *    CLOUDY    34  23  64 SW6       30.00F WCI  29
MARSHALLTOWN   CLOUDY    31  23  72 S6        29.98F WCI  25
NEWTON *       CLOUDY    32  25  74 S7        30.00F WCI  26
PELLA *        CLOUDY    32  25  73 CALM      30.03F
$$

IAZ004>006-015-016-023>025-035-036-110800-
   NORTH CENTRAL IOWA

CITY           SKY/WX    TMP DP  RH WIND       PRES   REMARKS
ALGONA *       CLOUDY    30  25  80 S8        29.93F WCI  23
CLARION *      PTCLDY    32  25  74 S8        29.96F WCI  25
ESTHERVILLE    CLOUDY    31  27  85 S12       29.89F WCI  22
FORT DODGE *   CLOUDY    32  24  72 S6        29.97S WCI  26
MASON CITY     CLOUDY    28  21  75 S6        29.96F WCI  22
FOREST CITY *  MOCLDY    30  27  86 S3        29.94F
WEBSTER CITY * CLOUDY    32  23  69 S8        29.96S WCI  25
IOWA FALLS *     N/A     31  24  74 SE6       29.99S WCI  25
$$

IAZ007>011-017>019-026>030-037>042-050>054-066-110800-
   NORTHEAST IOWA

CITY           SKY/WX    TMP DP  RH WIND       PRES   REMARKS
CEDAR RAPIDS   CLOUDY    29  23  78 S6        30.02F WCI  23
CHARLES CITY * CLOUDY    28  25  86 S9        29.97F WCI  20
CLINTON *      CLOUDY    21  20  96 E5        30.04F WCI  15
DECORAH *      CLOUDY    25  23  93 S7        29.95F WCI  17
DUBUQUE        CLOUDY    24  21  88 CALM      29.99F
MONTICELLO *   CLOUDY    25  21  86 CALM      30.02S
OELWEIN *      CLOUDY    25  25 100 S6        30.00F WCI  18
WATERLOO       PTCLDY    29  22  75 S7        29.99F WCI  22
$$

IAZ064-065-067-068-078-110800-
   EAST CENTRAL IOWA

CITY           SKY/WX    TMP DP  RH WIND       PRES   REMARKS
DAVENPORT      MOCLDY    25  20  81 S6        30.06F WCI  18
IOWA CITY      CLOUDY    31  23  72 S6        30.06F WCI  25
MT. PLEASANT * CLOUDY    31  24  73 S6        30.04F WCI  25
MUSCATINE *    CLOUDY    30  25  80 S5        30.06F WCI  25
QUAD CITIES    CLOUDY    26  22  84 CALM      30.04F
$$

IAZ062-063-075>077-085>089-095>099-110800-
   SOUTHEAST IOWA

CITY           SKY/WX    TMP DP  RH WIND       PRES   REMARKS
BURLINGTON     CLOUDY    31  25  78 S6        30.05F WCI  25
FAIRFIELD *    CLOUDY    32  23  69 S5        30.03F WCI  27
FORT MADISON * CLOUDY    34  25  69 CALM      30.06F
KEOKUK *       CLOUDY    34  25  69 CALM      30.04F
OSKALOOSA *      N/A     32  24  74 S6        30.03F WCI  26
OTTUMWA        CLOUDY    33  25  72 S6        30.03F WCI  28
WASHINGTON *   CLOUDY    32  25  74 S6        30.05F WCI  26
$$

ABBREVIATIONS USED IN REMARKS
   TC - TEMPERATURES IN CELSIUS
  WCI - WIND CHILL INDEX
   HX - HEAT INDEX
  VSB - VISIBILITY
$$




USA.gov is the U.S. government's official web portal to all federal, state and local government web resources and services.